Abraham Lincoln Capital Airport
KSPI : now visible

Airfield :











YOU CAN JOIN US ON...

 
LOGIN :

Register | Disclaimer

   EN    FR    IT 

 









Legend :    VFR   Marginal VFR   IFR   Intensive IFR   Very Intensive IFR
Visi :
Ceiling :
>= 8 km
>= 3000ft
5 to 8 km
1000 to 3000 ft
1500m to 5 km
500 to 1000 ft
800 to 1500m
200 to 500 ft
< 800m
< 200 ft
Symbols :   Thunderstorms  Fog  Heavy snow  Heavy precipitations  Wind > 20 kt






- Airport Elevation : 598 ft
- IATA code : SPI


KSPI - Abraham Lincoln Capital

CURRENT METAR :
  • 261252Z 20006KT 10SM CLR 14/07 A3005 RMK AO2 SLP177 T01440072

EXPIRED METARs :
  • 261152Z 20007KT 10SM CLR 12/06 A3005 RMK AO2 SLP175 T01220061 10122 20094 51002
  • 261052Z 22004KT 10SM CLR 10/06 A3005 RMK AO2 SLP175 T01000061

TAF KSPI
Valid from the 26 at 12:00 until the 27 at 12:00 UTC


261120Z 2612/2712 20006KT P6SM SKC
FM261800 19013G21KT P6SM SCT250
FM270300 20013G21KT P6SM SKC WS020/24045KT
KZKC FIR / North America



MET'MAP, your aeronautical weather chart ! - Copyright ORBIFLY December 2007 - Disclaimer

ORBIFLY MET'MAP TEAM :

Programming & Development : Alexandra Zaïnal
Concept & original design : Baudouin d'Aumeries
Assistance for programming : Marc-Olivier Méhu
Technical & hardware support : Manuel Goepfert

Contact : metmap@orbifly.com




SOURCES & CREDITS :

   NOAA       Earth
Advisory